| time (UTC) | temp F | wind direction | speed MPH | gust MPH | rain 1hr in | rain 24hr in | rain mn in | humidity % | barometer mb |
| 20260902042234 | 76 | 166 | 0.0 | 0.0 | 0.00 | 0.00 | 0.00 | 87 | 1014.6 |
| 20260902041730 | 76 | 166 | 0.0 | 0.0 | 0.00 | 0.00 | 0.00 | 86 | 1014.5 |
| 20260902041225 | 76 | 166 | 0.0 | 0.0 | 0.00 | 0.00 | 0.00 | 86 | 1014.6 |
| 20260902040724 | 77 | 166 | 0.0 | 0.0 | 0.00 | 0.00 | 0.00 | 86 | 1014.7 |
| 20260902040220 | 77 | 166 | 0.0 | 0.0 | 0.00 | 0.00 | 0.00 | 86 | 1014.7 |
| 20260902035718 | 77 | 166 | 0.0 | 0.0 | 0.00 | 0.00 | 0.00 | 85 | 1014.4 |
| 20260902035214 | 77 | 166 | 0.0 | 0.0 | 0.00 | 0.00 | 0.00 | 85 | 1014.6 |
| 20260902034713 | 77 | 166 | 0.0 | 0.0 | 0.00 | 0.00 | 0.00 | 84 | 1014.6 |
| 20260902034213 | 77 | 166 | 0.0 | 0.0 | 0.00 | 0.00 | 0.00 | 84 | 1014.5 |
| 20260902033711 | 78 | 166 | 0.0 | 0.0 | 0.00 | 0.00 | 0.00 | 83 | 1014.5 |
| 20260902033206 | 78 | 166 | 0.0 | 0.0 | 0.00 | 0.00 | 0.00 | 83 | 1014.6 |
| 20260902032704 | 78 | 166 | 0.0 | 0.0 | 0.00 | 0.00 | 0.00 | 82 | 1014.5 |
| 20260902032200 | 78 | 166 | 0.0 | 0.0 | 0.00 | 0.00 | 0.00 | 81 | 1014.7 |
| 20260902031654 | 78 | 166 | 0.0 | 0.0 | 0.00 | 0.00 | 0.00 | 81 | 1014.2 |
| 20260902031150 | 78 | 166 | 0.0 | 0.0 | 0.00 | 0.00 | 0.00 | 80 | 1014.3 |
| 20260902030646 | 79 | 166 | 0.0 | 0.0 | 0.00 | 0.00 | 0.00 | 80 | 1014.3 |
| 20260902030144 | 79 | 166 | 0.0 | 0.0 | 0.00 | 0.00 | 0.00 | 79 | 1014.2 |
| 20260902025644 | 79 | 166 | 0.0 | 0.0 | 0.00 | 0.00 | 0.00 | 78 | 1014.2 |
| 20260902025140 | 80 | 166 | 0.0 | 0.0 | 0.00 | 0.00 | 0.00 | 77 | 1014.3 |
| 20260902024635 | 80 | 166 | 0.0 | 0.0 | 0.00 | 0.00 | 0.00 | 76 | 1014.1 |
| 20260902024130 | 80 | 166 | 0.0 | 0.0 | 0.00 | 0.00 | 0.00 | 75 | 1014.1 |
| 20260902023626 | 80 | 166 | 0.0 | 0.0 | 0.00 | 0.00 | 0.00 | 75 | 1014.2 |
| 20260902023125 | 80 | 166 | 0.0 | 0.0 | 0.00 | 0.00 | 0.00 | 74 | 1014.4 |
| 20260902022620 | 81 | 166 | 0.0 | 0.0 | 0.00 | 0.00 | 0.00 | 73 | 1014.1 |
| 20260902022116 | 81 | 166 | 0.0 | 0.0 | 0.00 | 0.00 | 0.00 | 72 | 1014.2 |
| 20260902021611 | 81 | 166 | 0.0 | 0.0 | 0.00 | 0.00 | 0.00 | 71 | 1014.0 |
| 20260902021106 | 82 | 166 | 0.0 | 0.0 | 0.00 | 0.00 | 0.00 | 70 | 1014.1 |
| 20260902020602 | 82 | 166 | 0.0 | 0.0 | 0.00 | 0.00 | 0.00 | 69 | 1014.0 |
| 20260902020058 | 83 | 166 | 0.0 | 0.0 | 0.00 | 0.00 | 0.00 | 68 | 1014.0 |
| 20260902015553 | 83 | 166 | 0.0 | 0.0 | 0.00 | 0.00 | 0.00 | 67 | 1013.8 |
| 20260902015049 | 83 | 166 | 0.0 | 0.0 | 0.00 | 0.00 | 0.00 | 66 | 1014.1 |
| 20260902014544 | 84 | 166 | 0.0 | 0.0 | 0.00 | 0.00 | 0.00 | 65 | 1014.0 |
| 20260902014039 | 84 | 166 | 0.0 | 0.0 | 0.00 | 0.00 | 0.00 | 64 | 1014.0 |
| 20260902013539 | 84 | 166 | 0.0 | 0.0 | 0.00 | 0.00 | 0.00 | 63 | 1013.8 |
| 20260902013035 | 85 | 166 | 0.0 | 0.0 | 0.00 | 0.00 | 0.00 | 62 | 1013.6 |
| 20260902012530 | 85 | 166 | 0.0 | 0.0 | 0.00 | 0.00 | 0.00 | 61 | 1013.6 |
| 20260902012025 | 85 | 166 | 0.0 | 0.0 | 0.00 | 0.00 | 0.00 | 60 | 1013.7 |
| 20260902011520 | 86 | 166 | 0.0 | 0.0 | 0.00 | 0.00 | 0.00 | 59 | 1013.5 |
| 20260902011015 | 86 | 166 | 0.0 | 0.0 | 0.00 | 0.00 | 0.00 | 58 | 1013.7 |
| 20260902010515 | 86 | 166 | 0.0 | 0.0 | 0.00 | 0.00 | 0.00 | 57 | 1013.6 |
| 20260902010010 | 87 | 166 | 0.0 | 0.0 | 0.00 | 0.00 | 0.00 | 56 | 1013.6 |
| 20260902005508 | 87 | 166 | 0.0 | 0.0 | 0.00 | 0.00 | 0.00 | 54 | 1013.6 |
| 20260902005005 | 88 | 166 | 0.0 | 0.0 | 0.00 | 0.00 | 0.00 | 53 | 1013.5 |
| 20260902004504 | 88 | 166 | 0.0 | 0.0 | 0.00 | 0.00 | 0.00 | 52 | 1013.5 |
| 20260902003959 | 89 | 166 | 0.0 | 0.0 | 0.00 | 0.00 | 0.00 | 51 | 1013.5 |
| 20260902003454 | 90 | 166 | 0.0 | 0.0 | 0.00 | 0.00 | 0.00 | 49 | 1013.8 |
| 20260902002950 | 91 | 166 | 0.0 | 0.0 | 0.00 | 0.00 | 0.00 | 48 | 1013.6 |
| 20260902002445 | 91 | 166 | 0.0 | 0.0 | 0.00 | 0.00 | 0.00 | 47 | 1013.6 |
| 20260902001944 | 92 | 166 | 0.0 | 0.0 | 0.00 | 0.00 | 0.00 | 46 | 1013.8 |
| 20260902001439 | 93 | 166 | 0.0 | 0.0 | 0.00 | 0.00 | 0.00 | 45 | 1013.6 |
| 20260902000934 | 94 | 166 | 0.0 | 1.0 | 0.00 | 0.00 | 0.00 | 43 | 1013.8 |
| 20260902000429 | 94 | 166 | 0.0 | 2.0 | 0.00 | 0.00 | 0.00 | 43 | 1013.8 |
| 20260901235924 | 94 | 166 | 1.0 | 1.0 | 0.00 | 0.00 | 0.00 | 42 | 1013.9 |
| 20260901235419 | 95 | 166 | 1.0 | 1.0 | 0.00 | 0.00 | 0.00 | 42 | 1013.7 |
| 20260901234914 | 95 | 166 | 2.0 | 2.0 | 0.00 | 0.00 | 0.00 | 41 | 1013.8 |
| 20260901234408 | 95 | 166 | 1.0 | 1.0 | 0.00 | 0.00 | 0.00 | 42 | 1013.8 |
| 20260901233903 | 96 | 166 | 0.0 | 0.0 | 0.00 | 0.00 | 0.00 | 41 | 1014.1 |
| 20260901233358 | 96 | 166 | 1.0 | 1.0 | 0.00 | 0.00 | 0.00 | 41 | 1014.0 |
| 20260901232854 | 96 | 166 | 2.0 | 2.0 | 0.00 | 0.00 | 0.00 | 38 | 1013.7 |
| 20260901232348 | 96 | 160 | 1.0 | 3.0 | 0.00 | 0.00 | 0.00 | 38 | 1013.9 |
| 20260901231844 | 97 | 160 | 1.0 | 2.0 | 0.00 | 0.00 | 0.00 | 38 | 1013.8 |
| 20260901231341 | 96 | 160 | 2.0 | 3.0 | 0.00 | 0.00 | 0.00 | 37 | 1013.7 |
| 20260901230837 | 97 | 160 | 2.0 | 3.0 | 0.00 | 0.00 | 0.00 | 37 | 1014.0 |
| 20260901230336 | 96 | 166 | 3.0 | 5.0 | 0.00 | 0.00 | 0.00 | 37 | 1013.7 |
| 20260901225832 | 97 | 168 | 5.0 | 6.0 | 0.00 | 0.00 | 0.00 | 36 | 1013.9 |
| 20260901225331 | 97 | 171 | 3.0 | 7.0 | 0.00 | 0.00 | 0.00 | 36 | 1013.7 |
| 20260901224826 | 97 | 175 | 3.0 | 3.0 | 0.00 | 0.00 | 0.00 | 36 | 1013.7 |
| 20260901224323 | 97 | 171 | 1.0 | 2.0 | 0.00 | 0.00 | 0.00 | 36 | 1013.7 |
| 20260901223819 | 97 | 170 | 3.0 | 6.0 | 0.00 | 0.00 | 0.00 | 36 | 1013.8 |
| 20260901223314 | 97 | 165 | 2.0 | 3.0 | 0.00 | 0.00 | 0.00 | 36 | 1014.0 |
| 20260901222809 | 97 | 173 | 3.0 | 7.0 | 0.00 | 0.00 | 0.00 | 36 | 1013.7 |
| 20260901222306 | 98 | 176 | 4.0 | 6.0 | 0.00 | 0.00 | 0.00 | 35 | 1013.9 |
| 20260901221802 | 98 | 141 | 2.0 | 2.0 | 0.00 | 0.00 | 0.00 | 37 | 1013.7 |
| 20260901221256 | 98 | 139 | 1.0 | 2.0 | 0.00 | 0.00 | 0.00 | 38 | 1013.7 |
| 20260901220756 | 98 | 156 | 3.0 | 6.0 | 0.00 | 0.00 | 0.00 | 36 | 1013.7 |
| 20260901220250 | 98 | 173 | 1.0 | 7.0 | 0.00 | 0.00 | 0.00 | 35 | 1013.8 |
| 20260901215749 | 98 | 220 | 2.0 | 8.0 | 0.00 | 0.00 | 0.00 | 35 | 1013.9 |
| 20260901215248 | 98 | 156 | 2.0 | 3.0 | 0.00 | 0.00 | 0.00 | 36 | 1013.8 |
| 20260901214747 | 98 | 166 | 1.0 | 5.0 | 0.00 | 0.00 | 0.00 | 36 | 1013.9 |
| 20260901214246 | 98 | 168 | 2.0 | 5.0 | 0.00 | 0.00 | 0.00 | 34 | 1013.9 |
| 20260901213741 | 98 | 178 | 2.0 | 5.0 | 0.00 | 0.00 | 0.00 | 36 | 1014.0 |
| 20260901213240 | 98 | 162 | 3.0 | 6.0 | 0.00 | 0.00 | 0.00 | 36 | 1014.1 |
| 20260901212735 | 99 | 168 | 4.0 | 8.0 | 0.00 | 0.00 | 0.00 | 35 | 1014.2 |
| 20260901212231 | 98 | 158 | 1.0 | 3.0 | 0.00 | 0.00 | 0.00 | 35 | 1013.9 |
| 20260901211726 | 98 | 171 | 3.0 | 6.0 | 0.00 | 0.00 | 0.00 | 34 | 1014.1 |
| 20260901211222 | 99 | 164 | 2.0 | 6.0 | 0.00 | 0.00 | 0.00 | 34 | 1014.2 |
| 20260901210717 | 98 | 258 | 4.0 | 8.0 | 0.00 | 0.00 | 0.00 | 34 | 1014.3 |
| 20260901210208 | 98 | 160 | 4.0 | 5.0 | 0.00 | 0.00 | 0.00 | 33 | 1014.5 |
| 20260901205703 | 98 | 165 | 4.0 | 9.0 | 0.00 | 0.00 | 0.00 | 34 | 1014.4 |
| 20260901205158 | 99 | 162 | 4.0 | 10.0 | 0.00 | 0.00 | 0.00 | 34 | 1014.3 |
| 20260901204653 | 98 | 170 | 5.0 | 6.0 | 0.00 | 0.00 | 0.00 | 34 | 1014.4 |
| 20260901204148 | 98 | 176 | 2.0 | 6.0 | 0.00 | 0.00 | 0.00 | 34 | 1014.5 |
| 20260901203643 | 99 | 165 | 4.0 | 6.0 | 0.00 | 0.00 | 0.00 | 34 | 1014.7 |
| 20260901203138 | 98 | 174 | 5.0 | 6.0 | 0.00 | 0.00 | 0.00 | 36 | 1014.4 |
| 20260901202637 | 99 | 164 | 5.0 | 7.0 | 0.00 | 0.00 | 0.00 | 34 | 1014.6 |
| 20260901202133 | 98 | 166 | 2.0 | 5.0 | 0.00 | 0.00 | 0.00 | 35 | 1014.6 |
| 20260901201629 | 98 | 168 | 6.0 | 8.0 | 0.00 | 0.00 | 0.00 | 34 | 1014.8 |
| 20260901201127 | 98 | 249 | 3.0 | 8.0 | 0.00 | 0.00 | 0.00 | 34 | 1014.9 |
| 20260901200622 | 98 | 164 | 5.0 | 7.0 | 0.00 | 0.00 | 0.00 | 34 | 1014.9 |
| 20260901200117 | 98 | 162 | 2.0 | 7.0 | 0.00 | 0.00 | 0.00 | 35 | 1014.8 |
| 20260901195614 | 98 | 190 | 3.0 | 8.0 | 0.00 | 0.00 | 0.00 | 34 | 1015.1 |
| 20260901195109 | 98 | 164 | 3.0 | 7.0 | 0.00 | 0.00 | 0.00 | 34 | 1015.0 |
| 20260901194604 | 99 | 201 | 2.0 | 5.0 | 0.00 | 0.00 | 0.00 | 35 | 1015.2 |
| 20260901194059 | 98 | 298 | 3.0 | 6.0 | 0.00 | 0.00 | 0.00 | 35 | 1015.0 |
| 20260901193555 | 98 | 182 | 2.0 | 5.0 | 0.00 | 0.00 | 0.00 | 34 | 1015.1 |
| 20260901193049 | 98 | 153 | 4.0 | 6.0 | 0.00 | 0.00 | 0.00 | 34 | 1015.2 |
| 20260901192544 | 98 | 189 | 3.0 | 7.0 | 0.00 | 0.00 | 0.00 | 35 | 1015.1 |
| 20260901192040 | 98 | 162 | 3.0 | 3.0 | 0.00 | 0.00 | 0.00 | 35 | 1015.1 |
| 20260901191536 | 97 | 167 | 1.0 | 3.0 | 0.00 | 0.00 | 0.00 | 36 | 1015.1 |
| 20260901191032 | 97 | 172 | 5.0 | 7.0 | 0.00 | 0.00 | 0.00 | 36 | 1015.2 |
| 20260901190526 | 98 | 161 | 2.0 | 7.0 | 0.00 | 0.00 | 0.00 | 36 | 1015.4 |
| 20260901190025 | 97 | 197 | 3.0 | 3.0 | 0.00 | 0.00 | 0.00 | 36 | 1015.1 |
| 20260901185519 | 96 | 173 | 4.0 | 6.0 | 0.00 | 0.00 | 0.00 | 37 | 1015.2 |
| 20260901185018 | 96 | 161 | 3.0 | 5.0 | 0.00 | 0.00 | 0.00 | 38 | 1015.4 |
| 20260901184514 | 96 | 169 | 3.0 | 6.0 | 0.00 | 0.00 | 0.00 | 37 | 1015.5 |
| 20260901184009 | 96 | 162 | 4.0 | 5.0 | 0.00 | 0.00 | 0.00 | 38 | 1015.4 |
| 20260901183503 | 96 | 152 | 2.0 | 5.0 | 0.00 | 0.00 | 0.00 | 37 | 1015.5 |
| 20260901182959 | 96 | 157 | 5.0 | 6.0 | 0.00 | 0.00 | 0.00 | 37 | 1015.7 |
| 20260901182454 | 96 | 304 | 1.0 | 3.0 | 0.00 | 0.00 | 0.00 | 38 | 1015.6 |
| 20260901181949 | 96 | 281 | 5.0 | 7.0 | 0.00 | 0.00 | 0.00 | 37 | 1015.6 |
| 20260901181449 | 95 | 147 | 3.0 | 6.0 | 0.00 | 0.00 | 0.00 | 38 | 1016.0 |
| 20260901180948 | 96 | 175 | 4.0 | 6.0 | 0.00 | 0.00 | 0.00 | 38 | 1016.2 |
| 20260901180442 | 96 | 265 | 3.0 | 5.0 | 0.00 | 0.00 | 0.00 | 37 | 1016.2 |
| 20260901175940 | 95 | 169 | 2.0 | 5.0 | 0.00 | 0.00 | 0.00 | 40 | 1016.4 |
| 20260901175435 | 95 | 164 | 4.0 | 9.0 | 0.00 | 0.00 | 0.00 | 39 | 1016.2 |
| 20260901174930 | 95 | 165 | 2.0 | 8.0 | 0.00 | 0.00 | 0.00 | 39 | 1016.3 |
| 20260901174426 | 96 | 169 | 2.0 | 5.0 | 0.00 | 0.00 | 0.00 | 39 | 1016.4 |
| 20260901173921 | 95 | 164 | 1.0 | 6.0 | 0.00 | 0.00 | 0.00 | 40 | 1016.4 |
| 20260901173416 | 94 | 153 | 1.0 | 2.0 | 0.00 | 0.00 | 0.00 | 41 | 1016.6 |
| 20260901172913 | 94 | 307 | 1.0 | 5.0 | 0.00 | 0.00 | 0.00 | 41 | 1016.6 |
| 20260901172407 | 95 | 154 | 2.0 | 6.0 | 0.00 | 0.00 | 0.00 | 42 | 1016.4 |
| 20260901171905 | 95 | 146 | 2.0 | 5.0 | 0.00 | 0.00 | 0.00 | 42 | 1016.6 |
| 20260901171403 | 94 | 230 | 1.0 | 3.0 | 0.00 | 0.00 | 0.00 | 42 | 1016.5 |
| 20260901170902 | 93 | 163 | 3.0 | 6.0 | 0.00 | 0.00 | 0.00 | 43 | 1016.6 |
| 20260901170357 | 94 | 151 | 2.0 | 5.0 | 0.00 | 0.00 | 0.00 | 44 | 1016.5 |
| 20260901165851 | 93 | 163 | 2.0 | 8.0 | 0.00 | 0.00 | 0.00 | 44 | 1016.6 |
| 20260901165346 | 93 | 180 | 3.0 | 7.0 | 0.00 | 0.00 | 0.00 | 44 | 1016.7 |
| 20260901164843 | 93 | 273 | 4.0 | 5.0 | 0.00 | 0.00 | 0.00 | 46 | 1017.0 |
| 20260901164337 | 93 | 186 | 1.0 | 3.0 | 0.00 | 0.00 | 0.00 | 47 | 1016.9 |
| 20260901163832 | 93 | 151 | 1.0 | 7.0 | 0.00 | 0.00 | 0.00 | 46 | 1016.9 |
| 20260901163327 | 92 | 306 | 2.0 | 3.0 | 0.00 | 0.00 | 0.00 | 48 | 1017.0 |
| 20260901162822 | 92 | 167 | 0.0 | 5.0 | 0.00 | 0.00 | 0.00 | 49 | 1017.1 |
| 20260901162321 | 91 | 154 | 1.0 | 2.0 | 0.00 | 0.00 | 0.00 | 50 | 1017.0 |
| 20260901161820 | 91 | 176 | 4.0 | 6.0 | 0.00 | 0.00 | 0.00 | 49 | 1017.1 |
| 20260901161315 | 91 | 171 | 4.0 | 6.0 | 0.00 | 0.00 | 0.00 | 50 | 1017.1 |
| 20260901160810 | 90 | 170 | 3.0 | 5.0 | 0.00 | 0.00 | 0.00 | 51 | 1016.9 |
| 20260901160306 | 89 | 191 | 1.0 | 2.0 | 0.00 | 0.00 | 0.00 | 52 | 1017.0 |
| 20260901155805 | 89 | 202 | 2.0 | 3.0 | 0.00 | 0.00 | 0.00 | 53 | 1017.0 |
| 20260901155300 | 89 | 167 | 2.0 | 3.0 | 0.00 | 0.00 | 0.00 | 53 | 1017.2 |
| 20260901154756 | 88 | 167 | 1.0 | 5.0 | 0.00 | 0.00 | 0.00 | 53 | 1017.1 |
| 20260901154255 | 88 | 170 | 4.0 | 6.0 | 0.00 | 0.00 | 0.00 | 53 | 1017.2 |
| 20260901153750 | 88 | 168 | 2.0 | 3.0 | 0.00 | 0.00 | 0.00 | 54 | 1017.1 |
| 20260901153245 | 87 | 168 | 0.0 | 3.0 | 0.00 | 0.00 | 0.00 | 55 | 1017.3 |
| 20260901152744 | 87 | 170 | 3.0 | 3.0 | 0.00 | 0.00 | 0.00 | 55 | 1017.1 |
| 20260901152243 | 86 | 181 | 2.0 | 6.0 | 0.00 | 0.00 | 0.00 | 55 | 1017.1 |
| 20260901151738 | 86 | 163 | 2.0 | 5.0 | 0.00 | 0.00 | 0.00 | 56 | 1017.1 |
| 20260901151233 | 86 | 159 | 3.0 | 5.0 | 0.00 | 0.00 | 0.00 | 57 | 1017.2 |
| 20260901150732 | 85 | 163 | 3.0 | 3.0 | 0.00 | 0.00 | 0.00 | 58 | 1017.1 |
| 20260901150231 | 85 | 176 | 2.0 | 5.0 | 0.00 | 0.00 | 0.00 | 59 | 1017.3 |
| 20260901145728 | 84 | 174 | 2.0 | 3.0 | 0.00 | 0.00 | 0.00 | 59 | 1016.9 |
| 20260901145228 | 84 | 154 | 3.0 | 3.0 | 0.00 | 0.00 | 0.00 | 61 | 1017.3 |
| 20260901144724 | 84 | 153 | 2.0 | 3.0 | 0.00 | 0.00 | 0.00 | 61 | 1017.3 |
| 20260901144219 | 83 | 166 | 3.0 | 6.0 | 0.00 | 0.00 | 0.00 | 61 | 1017.2 |
| 20260901143714 | 82 | 166 | 4.0 | 5.0 | 0.00 | 0.00 | 0.00 | 63 | 1017.2 |
| 20260901143210 | 82 | 157 | 2.0 | 2.0 | 0.00 | 0.00 | 0.00 | 63 | 1017.2 |
| 20260901142707 | 82 | 159 | 1.0 | 3.0 | 0.00 | 0.00 | 0.00 | 64 | 1017.4 |
| 20260901142205 | 81 | 219 | 2.0 | 5.0 | 0.00 | 0.00 | 0.00 | 64 | 1017.5 |
| 20260901141701 | 81 | 172 | 2.0 | 3.0 | 0.00 | 0.00 | 0.00 | 66 | 1017.6 |
| 20260901141155 | 81 | 156 | 0.0 | 2.0 | 0.00 | 0.00 | 0.00 | 67 | 1017.4 |
| 20260901140654 | 80 | 155 | 0.0 | 3.0 | 0.00 | 0.00 | 0.00 | 67 | 1017.5 |
| 20260901140153 | 80 | 139 | 1.0 | 2.0 | 0.00 | 0.00 | 0.00 | 69 | 1017.5 |
| 20260901135648 | 79 | 139 | 0.0 | 0.0 | 0.00 | 0.00 | 0.00 | 70 | 1017.4 |
| 20260901135143 | 79 | 139 | 0.0 | 0.0 | 0.00 | 0.00 | 0.00 | 71 | 1017.4 |
| 20260901134639 | 78 | 139 | 1.0 | 2.0 | 0.00 | 0.00 | 0.00 | 71 | 1017.2 |
| 20260901134139 | 78 | 139 | 0.0 | 1.0 | 0.00 | 0.00 | 0.00 | 72 | 1017.5 |
| 20260901133639 | 77 | 139 | 0.0 | 0.0 | 0.00 | 0.00 | 0.00 | 74 | 1017.5 |
| 20260901133137 | 76 | 139 | 0.0 | 1.0 | 0.00 | 0.00 | 0.00 | 74 | 1017.5 |
| 20260901132632 | 75 | 139 | 0.0 | 0.0 | 0.00 | 0.00 | 0.00 | 77 | 1017.3 |
| 20260901132131 | 75 | 139 | 0.0 | 0.0 | 0.00 | 0.00 | 0.00 | 77 | 1017.7 |
| 20260901131625 | 74 | 139 | 0.0 | 0.0 | 0.00 | 0.00 | 0.00 | 77 | 1017.4 |
| 20260901131120 | 74 | 139 | 0.0 | 0.0 | 0.00 | 0.00 | 0.00 | 78 | 1017.5 |
| 20260901130616 | 74 | 139 | 0.0 | 0.0 | 0.00 | 0.00 | 0.00 | 77 | 1017.4 |
| 20260901130114 | 74 | 139 | 0.0 | 0.0 | 0.00 | 0.00 | 0.00 | 77 | 1017.3 |
| 20260901125612 | 73 | 139 | 0.0 | 0.0 | 0.00 | 0.00 | 0.00 | 78 | 1017.4 |
| 20260901125108 | 73 | 139 | 0.0 | 0.0 | 0.00 | 0.00 | 0.00 | 78 | 1017.2 |
| 20260901124607 | 73 | 139 | 0.0 | 0.0 | 0.00 | 0.00 | 0.00 | 78 | 1017.1 |
| 20260901124102 | 73 | 139 | 0.0 | 0.0 | 0.00 | 0.00 | 0.00 | 78 | 1017.2 |
| 20260901123557 | 73 | 139 | 0.0 | 0.0 | 0.00 | 0.00 | 0.00 | 77 | 1016.9 |
| 20260901123056 | 73 | 139 | 0.0 | 0.0 | 0.00 | 0.00 | 0.00 | 77 | 1017.0 |
| 20260901122555 | 73 | 139 | 0.0 | 0.0 | 0.00 | 0.00 | 0.00 | 77 | 1017.1 |
| 20260901122049 | 73 | 139 | 0.0 | 0.0 | 0.00 | 0.00 | 0.00 | 77 | 1016.9 |
| 20260901121550 | 73 | 139 | 0.0 | 0.0 | 0.00 | 0.00 | 0.00 | 77 | 1017.0 |
| 20260901121044 | 73 | 139 | 0.0 | 0.0 | 0.00 | 0.00 | 0.00 | 77 | 1016.8 |
| 20260901120539 | 73 | 139 | 0.0 | 0.0 | 0.00 | 0.00 | 0.00 | 77 | 1016.6 |
| 20260901120035 | 73 | 139 | 0.0 | 0.0 | 0.00 | 0.00 | 0.00 | 77 | 1016.6 |
| 20260901115529 | 73 | 139 | 0.0 | 0.0 | 0.00 | 0.00 | 0.00 | 76 | 1016.4 |
| 20260901115021 | 73 | 139 | 0.0 | 0.0 | 0.00 | 0.00 | 0.00 | 76 | 1016.5 |
| 20260901114516 | 73 | 139 | 0.0 | 0.0 | 0.00 | 0.00 | 0.00 | 75 | 1016.5 |
| 20260901114015 | 74 | 139 | 0.0 | 0.0 | 0.00 | 0.00 | 0.00 | 75 | 1016.5 |
| 20260901113514 | 73 | 139 | 0.0 | 0.0 | 0.00 | 0.00 | 0.00 | 76 | 1016.6 |
| 20260901113009 | 73 | 139 | 0.0 | 0.0 | 0.00 | 0.00 | 0.00 | 76 | 1016.5 |
| 20260901112503 | 74 | 139 | 0.0 | 0.0 | 0.00 | 0.00 | 0.00 | 75 | 1016.5 |
| 20260901111954 | 74 | 139 | 0.0 | 0.0 | 0.00 | 0.00 | 0.00 | 75 | 1016.4 |
| 20260901111452 | 74 | 139 | 0.0 | 0.0 | 0.00 | 0.00 | 0.00 | 75 | 1016.4 |
| 20260901110950 | 74 | 139 | 0.0 | 0.0 | 0.00 | 0.00 | 0.00 | 74 | 1016.3 |
| 20260901110446 | 74 | 139 | 0.0 | 1.0 | 0.00 | 0.00 | 0.00 | 74 | 1016.2 |
| 20260901105942 | 74 | 139 | 0.0 | 0.0 | 0.00 | 0.00 | 0.00 | 75 | 1016.0 |
| 20260901105438 | 74 | 139 | 0.0 | 0.0 | 0.00 | 0.00 | 0.00 | 75 | 1016.3 |
| 20260901104933 | 74 | 139 | 0.0 | 0.0 | 0.00 | 0.00 | 0.00 | 75 | 1015.9 |
| 20260901104429 | 73 | 139 | 0.0 | 1.0 | 0.00 | 0.00 | 0.00 | 75 | 1015.9 |
| 20260901103923 | 73 | 139 | 0.0 | 0.0 | 0.00 | 0.00 | 0.00 | 76 | 1015.9 |
| 20260901103418 | 73 | 139 | 0.0 | 0.0 | 0.00 | 0.00 | 0.00 | 77 | 1015.8 |
| 20260901102913 | 73 | 139 | 0.0 | 0.0 | 0.00 | 0.00 | 0.00 | 77 | 1015.9 |
| 20260901102413 | 73 | 139 | 0.0 | 0.0 | 0.00 | 0.00 | 0.00 | 77 | 1015.9 |
| 20260901101908 | 73 | 139 | 0.0 | 0.0 | 0.00 | 0.00 | 0.00 | 77 | 1016.0 |
| 20260901101403 | 72 | 139 | 0.0 | 0.0 | 0.00 | 0.00 | 0.00 | 78 | 1016.3 |
| 20260901100902 | 72 | 139 | 0.0 | 0.0 | 0.00 | 0.00 | 0.00 | 78 | 1016.2 |
| 20260901100357 | 72 | 139 | 0.0 | 0.0 | 0.00 | 0.00 | 0.00 | 79 | 1015.9 |
| 20260901095851 | 72 | 139 | 0.0 | 0.0 | 0.00 | 0.00 | 0.00 | 80 | 1016.0 |
| 20260901095348 | 72 | 139 | 0.0 | 0.0 | 0.00 | 0.00 | 0.00 | 80 | 1015.8 |
| 20260901094843 | 72 | 139 | 0.0 | 0.0 | 0.00 | 0.00 | 0.00 | 80 | 1015.7 |
| 20260901094337 | 72 | 139 | 0.0 | 0.0 | 0.00 | 0.00 | 0.00 | 81 | 1015.9 |
| 20260901093832 | 72 | 139 | 0.0 | 0.0 | 0.00 | 0.00 | 0.00 | 82 | 1015.8 |
| 20260901093331 | 71 | 139 | 0.0 | 0.0 | 0.00 | 0.00 | 0.00 | 82 | 1015.7 |
| 20260901092827 | 71 | 139 | 0.0 | 0.0 | 0.00 | 0.00 | 0.00 | 83 | 1015.7 |
| 20260901092322 | 71 | 139 | 0.0 | 0.0 | 0.00 | 0.00 | 0.00 | 84 | 1015.4 |
| 20260901091818 | 71 | 139 | 0.0 | 0.0 | 0.00 | 0.00 | 0.00 | 83 | 1015.4 |
| 20260901091313 | 71 | 139 | 0.0 | 0.0 | 0.00 | 0.00 | 0.00 | 83 | 1015.4 |
| 20260901090808 | 71 | 139 | 0.0 | 0.0 | 0.00 | 0.00 | 0.00 | 85 | 1015.4 |
| 20260901090308 | 70 | 139 | 0.0 | 0.0 | 0.00 | 0.00 | 0.00 | 88 | 1015.2 |
| 20260901085804 | 69 | 139 | 0.0 | 0.0 | 0.00 | 0.00 | 0.00 | 91 | 1015.4 |
| 20260901085259 | 70 | 139 | 0.0 | 0.0 | 0.00 | 0.00 | 0.00 | 91 | 1015.2 |
| 20260901084755 | 70 | 139 | 0.0 | 0.0 | 0.00 | 0.00 | 0.00 | 91 | 1015.0 |
| 20260901084251 | 70 | 139 | 0.0 | 0.0 | 0.00 | 0.00 | 0.00 | 91 | 1015.4 |
| 20260901083746 | 70 | 139 | 0.0 | 0.0 | 0.00 | 0.00 | 0.00 | 91 | 1014.9 |
| 20260901083246 | 70 | 139 | 0.0 | 0.0 | 0.00 | 0.00 | 0.00 | 91 | 1015.0 |
| 20260901082744 | 70 | 139 | 0.0 | 0.0 | 0.00 | 0.00 | 0.00 | 91 | 1015.1 |
| 20260901082239 | 70 | 139 | 0.0 | 0.0 | 0.00 | 0.00 | 0.00 | 91 | 1015.3 |
| 20260901081735 | 70 | 139 | 0.0 | 0.0 | 0.00 | 0.00 | 0.00 | 90 | 1015.4 |
| 20260901081235 | 70 | 139 | 0.0 | 1.0 | 0.00 | 0.00 | 0.00 | 90 | 1015.3 |
| 20260901080730 | 70 | 139 | 1.0 | 2.0 | 0.00 | 0.00 | 0.00 | 90 | 1015.3 |
| 20260901080228 | 70 | 139 | 0.0 | 0.0 | 0.00 | 0.00 | 0.00 | 90 | 1015.3 |
| 20260901075722 | 71 | 139 | 0.0 | 0.0 | 0.00 | 0.00 | 0.00 | 90 | 1015.2 |
| 20260901075217 | 71 | 139 | 0.0 | 0.0 | 0.00 | 0.00 | 0.00 | 90 | 1015.1 |
| 20260901074712 | 71 | 139 | 0.0 | 0.0 | 0.00 | 0.00 | 0.00 | 90 | 1015.1 |
| 20260901074208 | 71 | 139 | 0.0 | 0.0 | 0.00 | 0.00 | 0.00 | 90 | 1015.1 |
| 20260901073703 | 71 | 139 | 0.0 | 0.0 | 0.00 | 0.00 | 0.00 | 89 | 1015.2 |
| 20260901073159 | 71 | 139 | 0.0 | 0.0 | 0.00 | 0.00 | 0.00 | 89 | 1015.3 |
| 20260901072653 | 71 | 139 | 0.0 | 0.0 | 0.00 | 0.00 | 0.00 | 89 | 1015.4 |
| 20260901072148 | 72 | 139 | 0.0 | 0.0 | 0.00 | 0.00 | 0.00 | 88 | 1015.2 |
| 20260901071643 | 72 | 139 | 0.0 | 0.0 | 0.00 | 0.00 | 0.00 | 88 | 1015.5 |
| 20260901071142 | 72 | 139 | 0.0 | 0.0 | 0.00 | 0.00 | 0.00 | 88 | 1015.3 |
| 20260901070631 | 72 | 139 | 0.0 | 0.0 | 0.00 | 0.00 | 0.00 | 87 | 1015.5 |
| 20260901070127 | 72 | 139 | 0.0 | 0.0 | 0.00 | 0.00 | 0.00 | 86 | 1015.4 |
| 20260901065620 | 73 | 139 | 0.0 | 0.0 | 0.00 | 0.00 | 0.00 | 86 | 1015.5 |
| 20260901065115 | 73 | 139 | 0.0 | 0.0 | 0.00 | 0.00 | 0.00 | 85 | 1015.5 |
| 20260901064612 | 73 | 139 | 0.0 | 0.0 | 0.00 | 0.00 | 0.00 | 84 | 1015.3 |
| 20260901064108 | 73 | 139 | 0.0 | 0.0 | 0.00 | 0.00 | 0.00 | 83 | 1015.2 |
| 20260901063605 | 74 | 139 | 0.0 | 0.0 | 0.00 | 0.00 | 0.00 | 82 | 1015.2 |
| 20260901063101 | 74 | 139 | 0.0 | 0.0 | 0.00 | 0.00 | 0.00 | 81 | 1015.3 |
| 20260901062556 | 74 | 139 | 1.0 | 1.0 | 0.00 | 0.00 | 0.00 | 80 | 1015.7 |
| 20260901062052 | 74 | 139 | 0.0 | 0.0 | 0.00 | 0.00 | 0.00 | 77 | 1015.3 |
| 20260901061548 | 75 | 139 | 0.0 | 0.0 | 0.00 | 0.00 | 0.00 | 76 | 1015.7 |
| 20260901061042 | 75 | 139 | 0.0 | 0.0 | 0.00 | 0.00 | 0.00 | 74 | 1015.6 |
| 20260901060537 | 75 | 139 | 0.0 | 1.0 | 0.00 | 0.00 | 0.00 | 73 | 1015.6 |
| 20260901060032 | 76 | 139 | 0.0 | 0.0 | 0.00 | 0.00 | 0.00 | 73 | 1015.6 |
| 20260901055528 | 76 | 139 | 0.0 | 0.0 | 0.00 | 0.00 | 0.00 | 71 | 1015.3 |
| 20260901055025 | 77 | 139 | 0.0 | 0.0 | 0.00 | 0.00 | 0.00 | 70 | 1015.3 |
| 20260901054521 | 77 | 139 | 0.0 | 0.0 | 0.00 | 0.00 | 0.00 | 69 | 1015.3 |
| 20260901054017 | 77 | 139 | 0.0 | 0.0 | 0.00 | 0.00 | 0.00 | 68 | 1015.5 |
| 20260901053513 | 77 | 139 | 0.0 | 0.0 | 0.00 | 0.00 | 0.00 | 69 | 1015.3 |
| 20260901053009 | 78 | 139 | 0.0 | 0.0 | 0.00 | 0.00 | 0.00 | 70 | 1015.8 |
| 20260901052504 | 78 | 139 | 0.0 | 0.0 | 0.00 | 0.00 | 0.00 | 67 | 1015.4 |
| 20260901052004 | 78 | 139 | 0.0 | 0.0 | 0.00 | 0.00 | 0.00 | 67 | 1015.3 |
| 20260901051458 | 79 | 139 | 0.0 | 0.0 | 0.00 | 0.00 | 0.00 | 64 | 1015.4 |
| 20260901050957 | 79 | 139 | 0.0 | 0.0 | 0.00 | 0.00 | 0.00 | 64 | 1015.3 |
| 20260901050452 | 79 | 139 | 0.0 | 0.0 | 0.00 | 0.00 | 0.00 | 63 | 1015.3 |
| 20260901045947 | 79 | 139 | 0.0 | 0.0 | 0.00 | 0.00 | 0.00 | 63 | 1015.4 |
| 20260901045442 | 79 | 139 | 0.0 | 0.0 | 0.00 | 0.00 | 0.00 | 63 | 1015.2 |
| 20260901044937 | 79 | 139 | 0.0 | 0.0 | 0.00 | 0.00 | 0.00 | 64 | 1015.5 |
| 20260901044433 | 79 | 139 | 0.0 | 0.0 | 0.00 | 0.00 | 0.00 | 65 | 1015.2 |
| 20260901043929 | 79 | 139 | 0.0 | 0.0 | 0.00 | 0.00 | 0.00 | 66 | 1015.2 |
| 20260901043424 | 79 | 139 | 0.0 | 0.0 | 0.00 | 0.00 | 0.00 | 67 | 1015.0 |
| 20260901042918 | 80 | 139 | 0.0 | 0.0 | 0.00 | 0.00 | 0.00 | 66 | 1015.0 |
| 20260901042413 | 80 | 139 | 0.0 | 0.0 | 0.00 | 0.00 | 0.00 | 66 | 1015.1 |